Weather History for Randolph AFB, TX

Change the Weather History Date:

Sunday, February 24, 2013

  Actual Average Record
Temperature  
Mean Temperature 54 °F -  
Max Temperature 69 °F 64 °F 85 °F (2011)
Min Temperature 38 °F 45 °F 28 °F (2003)
Degree Days  
Heating Degree Days 12    
Growing Degree Days 4 (Base 50)    
Moisture  
Dew Point 55 °F    
Average Humidity 80    
Maximum Humidity 100    
Minimum Humidity 59    
Precipitation  
Precipitation 0.00 in - - ()
Sea Level Pressure  
Sea Level Pressure 29.75 in    
Wind  
Wind Speed 9 mph (ESE)    
Max Wind Speed 16 mph    
Max Gust Speed 23 mph    
Visibility 10 miles    
Events      
Averages and records for this station are not official NWS values.
T = Trace of Precipitation, MM = Missing Value Source: NWS Daily Summary

Daily Weather History Graph

Daily Weather History Graph

Search for Another Location

Airport:

Trip Planner

Search our weather history database for the weather conditions in past years. The results will help you decide how hot, cold, wet, or windy it might be!

Date:

Astronomy

Feb. 24, 2013 Rise Set
Actual Time 7:03 AM CST 6:29 PM CST
Civil Twilight 6:39 AM CST 6:53 PM CST
Nautical Twilight 6:11 AM CST 7:21 PM CST
Astronomical Twilight 5:44 AM CST 7:48 PM CST
Moon 5:41 PM CST (2/24) 6:00 AM CST (2/24)
Length of Visible Light 12h 13m
Length of Day
11h 25m
Waxing Gibbous, 99% of the Moon is Illuminated
Feb 24
Waxing Gibbous
Feb 25
Full
Mar 4
Last Quarter
Mar 11
New
Mar 19
First Quarter

Hourly Weather History & Observations

Time (CST) Temp. Windchill Dew Point Humidity Pressure Visibility Wind Dir Wind Speed Gust Speed Precip Events Conditions
12:55 AM 47.8 °F - 38.1 °F 69% 29.91 in 10.0 mi ENE 5.8 mph - N/A   Clear
1:55 AM 46.8 °F - 38.3 °F 72% 29.90 in 10.0 mi ENE 4.6 mph - N/A   Clear
2:55 AM 46.0 °F 44.8 °F 38.1 °F 74% 29.88 in 10.0 mi North 3.5 mph - N/A   Clear
3:55 AM 42.4 °F - 37.9 °F 84% 29.86 in 10.0 mi Calm Calm - N/A   Clear
4:55 AM 40.1 °F 36.9 °F 36.7 °F 88% 29.87 in 10.0 mi NNW 4.6 mph - N/A   Clear
5:55 AM 39.0 °F 34.0 °F 36.3 °F 90% 29.87 in 10.0 mi NNW 6.9 mph - N/A   Clear
6:55 AM 38.1 °F 32.9 °F 35.8 °F 91% 29.87 in 10.0 mi NNW 6.9 mph - N/A   Clear
7:55 AM 41.7 °F 38.8 °F 38.1 °F 87% 29.88 in 10.0 mi North 4.6 mph - N/A   Clear
8:55 AM 54.0 °F - 42.8 °F 66% 29.88 in 10.0 mi ENE 8.1 mph - N/A   Clear
9:55 AM 59.7 °F - 46.9 °F 63% 29.88 in 10.0 mi East 8.1 mph - N/A   Clear
10:17 AM 60.8 °F - 48.2 °F 63% 29.88 in 10.0 mi ESE 11.5 mph - N/A   Mostly Cloudy
10:40 AM 64.4 °F - 50.0 °F 59% 29.87 in 10.0 mi SE 12.7 mph 18.4 mph N/A   Mostly Cloudy
10:50 AM 64.4 °F - 51.8 °F 64% 29.87 in 10.0 mi SE 13.8 mph 21.9 mph N/A   Mostly Cloudy
10:51 AM 64.4 °F - 51.8 °F 64% 29.87 in 10.0 mi SE 13.8 mph - N/A   Mostly Cloudy
10:52 AM 64.4 °F - 51.8 °F 64% 29.87 in 10.0 mi SE 15.0 mph 21.9 mph N/A   Scattered Clouds
10:55 AM 64.9 °F - 52.7 °F 64% 29.87 in 10.0 mi SE 13.8 mph - N/A   Scattered Clouds
11:19 AM 66.2 °F - 53.6 °F 64% 29.86 in 10.0 mi SE 15.0 mph 20.7 mph N/A   Mostly Cloudy
11:35 AM 66.2 °F - 51.8 °F 60% 29.86 in 10.0 mi SE 11.5 mph 21.9 mph N/A   Scattered Clouds
11:37 AM 66.2 °F - 51.8 °F 60% 29.85 in 10.0 mi SSE 15.0 mph 21.9 mph N/A   Mostly Cloudy
11:42 AM 66.2 °F - 51.8 °F 60% 29.85 in 10.0 mi SSE 12.7 mph 21.9 mph N/A   Scattered Clouds
11:55 AM 67.3 °F - 52.7 °F 59% 29.85 in 10.0 mi SSE 15.0 mph - N/A   Scattered Clouds
11:58 AM 68.0 °F - 53.6 °F 60% 29.84 in 10.0 mi South 16.1 mph - N/A   Mostly Cloudy
12:03 PM 68.0 °F - 53.6 °F 60% 29.84 in 10.0 mi SSE 16.1 mph - N/A   Mostly Cloudy
12:19 PM 68.0 °F - 53.6 °F 60% 29.83 in 10.0 mi SSE 12.7 mph 19.6 mph N/A   Mostly Cloudy
12:28 PM 66.2 °F - 53.6 °F 64% 29.83 in 10.0 mi SSE 11.5 mph 23.0 mph N/A   Mostly Cloudy
12:55 PM 66.2 °F - 52.7 °F 62% 29.80 in 10.0 mi SSE 10.4 mph - N/A   Overcast
1:55 PM 68.2 °F - 54.0 °F 60% 29.75 in 10.0 mi SE 12.7 mph - N/A   Scattered Clouds
2:55 PM 68.5 °F - 55.0 °F 62% 29.72 in 10.0 mi SE 15.0 mph - N/A   Mostly Cloudy
3:40 PM 69.8 °F - 55.4 °F 60% 29.70 in 10.0 mi SE 15.0 mph - N/A   Mostly Cloudy
3:50 PM 68.0 °F - 57.2 °F 68% 29.69 in 10.0 mi SE 15.0 mph - N/A   Mostly Cloudy
3:55 PM 68.4 °F - 56.7 °F 66% 29.69 in 10.0 mi SE 12.7 mph - N/A   Mostly Cloudy
4:38 PM 66.2 °F - 59.0 °F 78% 29.69 in 10.0 mi SE 12.7 mph - N/A   Overcast
4:55 PM 66.4 °F - 59.4 °F 78% 29.68 in 10.0 mi SE 9.2 mph - N/A   Overcast
5:01 PM 66.2 °F - 59.0 °F 78% 29.68 in 10.0 mi SE 15.0 mph - N/A   Overcast
5:26 PM 64.4 °F - 59.0 °F 83% 29.68 in 10.0 mi ESE 10.4 mph - N/A   Overcast
5:43 PM 64.4 °F - 60.8 °F 88% 29.69 in 10.0 mi ESE 8.1 mph - N/A   Overcast
5:55 PM 65.3 °F - 60.1 °F 83% 29.69 in 10.0 mi SE 10.4 mph - N/A   Overcast
6:55 PM 64.2 °F - 60.1 °F 86% 29.70 in 10.0 mi ESE 9.2 mph - N/A   Overcast
7:15 PM 64.4 °F - 59.0 °F 83% 29.68 in 10.0 mi ESE 9.2 mph - N/A   Mostly Cloudy
7:17 PM 64.4 °F - 59.0 °F 83% 29.68 in 10.0 mi ESE 10.4 mph - N/A   Mostly Cloudy
7:21 PM 62.6 °F - 59.0 °F 88% 29.68 in 10.0 mi ESE 10.4 mph - N/A   Scattered Clouds
7:23 PM 62.6 °F - 59.0 °F 88% 29.68 in 10.0 mi ESE 9.2 mph - N/A   Mostly Cloudy
7:25 PM 62.6 °F - 59.0 °F 88% 29.68 in 10.0 mi ESE 10.4 mph - N/A   Scattered Clouds
7:29 PM 62.6 °F - 59.0 °F 88% 29.68 in 10.0 mi ESE 10.4 mph - N/A   Mostly Cloudy
7:32 PM 62.6 °F - 59.0 °F 88% 29.68 in 10.0 mi ESE 11.5 mph - N/A   Mostly Cloudy
7:33 PM 62.6 °F - 59.0 °F 88% 29.68 in 10.0 mi ESE 12.7 mph - N/A   Mostly Cloudy
7:39 PM 62.6 °F - 59.0 °F 88% 29.69 in 10.0 mi ESE 9.2 mph - N/A   Mostly Cloudy
7:43 PM 62.6 °F - 60.8 °F 94% 29.69 in 10.0 mi ESE 9.2 mph - N/A   Mostly Cloudy
7:55 PM 63.5 °F - 60.8 °F 91% 29.68 in 10.0 mi SE 10.4 mph - N/A   Overcast
8:55 PM 63.1 °F - 60.8 °F 92% 29.68 in 10.0 mi ESE 8.1 mph - N/A   Overcast
9:19 PM 62.6 °F - 60.8 °F 94% 29.67 in 10.0 mi ESE 8.1 mph - N/A   Overcast
9:29 PM 62.6 °F - 60.8 °F 94% 29.67 in 10.0 mi ESE 10.4 mph - N/A   Overcast
9:55 PM 62.8 °F - 61.5 °F 96% 29.66 in 10.0 mi ESE 9.2 mph - N/A   Overcast
10:00 PM 62.6 °F - 62.6 °F 100% 29.66 in 10.0 mi ESE 10.4 mph - N/A   Overcast
10:03 PM 62.6 °F - 62.6 °F 100% 29.66 in 10.0 mi ESE 10.4 mph - N/A   Overcast
10:26 PM 62.6 °F - 62.6 °F 100% 29.65 in 10.0 mi ESE 8.1 mph - N/A   Overcast
10:55 PM 61.7 °F - 61.3 °F 99% 29.62 in 10.0 mi East 6.9 mph - N/A   Overcast
11:01 PM 62.6 °F - 60.8 °F 94% 29.62 in 10.0 mi ESE 6.9 mph - N/A   Overcast
11:07 PM 60.8 °F - 60.8 °F 100% 29.62 in 10.0 mi ESE 9.2 mph - N/A   Overcast
11:15 PM 60.8 °F - 60.8 °F 100% 29.61 in 9.0 mi SE 13.8 mph - N/A   Overcast
11:16 PM 60.8 °F - 60.8 °F 100% 29.61 in 9.0 mi ESE 11.5 mph - N/A   Overcast
11:55 PM 61.0 °F - 61.0 °F 100% 29.59 in 6.0 mi ESE 9.2 mph - N/A   Overcast
11:57 PM 60.8 °F - 60.8 °F 100% 29.59 in 6.0 mi ESE 8.1 mph - N/A   Overcast
11:59 PM 60.8 °F - 60.8 °F 100% 29.59 in 6.0 mi ESE 8.1 mph - N/A   Overcast